Indianapolis, IN

11:43 AM EDT on July 22, 2017 (GMT -0400)
Indianapolis Terry

Weather History for KTYQ - November, 2013

Change the Weather History Date:

Friday, November 1, 2013

  Actual Average (KEYE) Record (KEYE)
Temperature  
Mean Temperature 50 °F -  
Max Temperature 55 °F 55 °F 79 °F (2016)
Min Temperature 45 °F 39 °F 30 °F (2002)
Degree Days  
Heating Degree Days 16    
Moisture  
Dew Point 42 °F    
Average Humidity 77    
Maximum Humidity 87    
Minimum Humidity 60    
Precipitation  
Precipitation 0.22 in - - ()
Sea Level Pressure  
Sea Level Pressure 29.64 in    
Wind  
Wind Speed 11 mph (WSW)    
Max Wind Speed 16 mph    
Max Gust Speed 28 mph    
Visibility 10 miles    
Events Rain    
Averages and records for this station are not official NWS values.
T = Trace of Precipitation, MM = Missing Value Source: NWS Daily Summary

Daily Weather History Graph

Daily Weather History Graph

Search for Another Location

Airport or City:

Trip Planner

Search our weather history database for the weather conditions in past years. The results will help you decide how hot, cold, wet, or windy it might be!

Date:

Astronomy

Nov. 01, 2013 Rise Set
Actual Time 8:14 AM EDT 6:42 PM EDT
Civil Twilight 7:46 AM EDT 7:10 PM EDT
Nautical Twilight 7:14 AM EDT 7:42 PM EDT
Astronomical Twilight 6:42 AM EDT 8:13 PM EDT
Moon 6:06 AM EDT (11/1) 5:34 PM EDT (11/1)
Length of Visible Light 11h 24m
Length of Day
10h 27m
Waning Crescent, 4% of the Moon is Illuminated
Nov 1
Waning Crescent
Nov 3
New
Nov 10
First Quarter
Nov 17
Full
Nov 25
Last Quarter

Hourly Weather History & Observations

Time (EDT) Temp. Windchill Dew Point Humidity Pressure Visibility Wind Dir Wind Speed Gust Speed Precip Events Conditions
12:15 AM 52.2 °F - 48.4 °F 87% 29.44 in 10.0 mi West 9.2 mph 16.1 mph 0.06 in   Light Drizzle
12:35 AM 52.2 °F - 48.4 °F 87% 29.45 in 10.0 mi West 10.4 mph - 0.13 in   Overcast
12:55 AM 51.8 °F - 47.8 °F 86% 29.47 in 10.0 mi West 12.7 mph 19.6 mph 0.18 in   Drizzle
1:15 AM 51.6 °F - 47.7 °F 86% 29.47 in 7.0 mi West 13.8 mph 20.7 mph 0.03 in Rain Rain
1:35 AM 50.9 °F - 46.9 °F 86% 29.48 in 10.0 mi West 12.7 mph 19.6 mph 0.04 in   Mostly Cloudy
1:55 AM 51.1 °F - 46.9 °F 86% 29.50 in 10.0 mi West 11.5 mph 19.6 mph 0.04 in   Mostly Cloudy
2:15 AM 51.3 °F - 46.8 °F 85% 29.51 in 10.0 mi West 10.4 mph 25.3 mph N/A   Overcast
2:35 AM 50.9 °F - 46.0 °F 83% 29.53 in 10.0 mi West 13.8 mph 20.7 mph N/A   Overcast
2:55 AM 50.2 °F - 45.1 °F 83% 29.53 in 10.0 mi West 16.1 mph 25.3 mph N/A   Overcast
3:15 AM 49.1 °F - 44.1 °F 83% 29.54 in 10.0 mi West 13.8 mph 27.6 mph N/A   Overcast
3:35 AM 48.4 °F - 43.7 °F 84% 29.55 in 10.0 mi West 15.0 mph 21.9 mph N/A   Mostly Cloudy
3:55 AM 47.7 °F - 42.6 °F 83% 29.57 in 10.0 mi West 16.1 mph 23.0 mph N/A   Overcast
4:15 AM 47.1 °F - 41.9 °F 82% 29.57 in 10.0 mi West 15.0 mph 23.0 mph N/A   Overcast
4:35 AM 46.2 °F 40.8 °F 41.4 °F 83% 29.57 in 10.0 mi West 11.5 mph 17.3 mph N/A   Mostly Cloudy
4:55 AM 45.5 °F 40.3 °F 41.0 °F 84% 29.58 in 10.0 mi West 10.4 mph 18.4 mph N/A   Clear
5:15 AM 45.9 °F 42.3 °F 41.9 °F 86% 29.58 in 10.0 mi WSW 6.9 mph - N/A   Mostly Cloudy
5:35 AM 45.9 °F 40.8 °F 41.5 °F 85% 29.59 in 10.0 mi SW 10.4 mph - N/A   Overcast
5:55 AM 45.7 °F 40.6 °F 41.7 °F 86% 29.59 in 10.0 mi WSW 10.4 mph - N/A   Overcast
6:15 AM 45.5 °F 40.3 °F 41.4 °F 85% 29.60 in 10.0 mi SW 10.4 mph - N/A   Mostly Cloudy
6:35 AM 45.3 °F 39.7 °F 41.2 °F 85% 29.61 in 10.0 mi SW 11.5 mph - N/A   Scattered Clouds
6:55 AM 45.7 °F 40.2 °F 41.7 °F 86% 29.62 in 10.0 mi SW 11.5 mph 21.9 mph N/A   Mostly Cloudy
7:15 AM 45.5 °F 39.6 °F 41.4 °F 85% 29.62 in 10.0 mi SW 12.7 mph - N/A   Mostly Cloudy
7:35 AM 45.0 °F 39.7 °F 41.0 °F 86% 29.62 in 10.0 mi SW 10.4 mph - N/A   Scattered Clouds
7:55 AM 45.5 °F 40.8 °F 41.4 °F 85% 29.64 in 10.0 mi SW 9.2 mph - N/A   Scattered Clouds
8:15 AM 45.9 °F 41.7 °F 42.1 °F 87% 29.64 in 10.0 mi SW 8.1 mph - N/A   Overcast
8:35 AM 46.4 °F 41.5 °F 42.4 °F 86% 29.64 in 10.0 mi SW 10.4 mph - N/A   Overcast
8:55 AM 46.9 °F - 42.8 °F 86% 29.64 in 10.0 mi SW 9.2 mph - N/A   Overcast
9:15 AM 47.5 °F - 43.2 °F 85% 29.65 in 10.0 mi WSW 11.5 mph 16.1 mph N/A   Overcast
9:35 AM 47.8 °F - 43.2 °F 84% 29.66 in 10.0 mi West 10.4 mph - N/A   Overcast
9:55 AM 48.2 °F - 43.5 °F 84% 29.67 in 10.0 mi West 10.4 mph 16.1 mph N/A   Overcast
10:15 AM 48.6 °F - 43.7 °F 83% 29.67 in 10.0 mi WSW 9.2 mph - N/A   Overcast
10:35 AM 48.7 °F - 43.7 °F 83% 29.67 in 10.0 mi West 9.2 mph 17.3 mph N/A   Overcast
10:55 AM 49.3 °F - 44.1 °F 82% 29.66 in 10.0 mi WSW 9.2 mph - N/A   Overcast
11:15 AM 50.0 °F - 43.7 °F 79% 29.67 in 10.0 mi WSW 11.5 mph 18.4 mph N/A   Overcast
11:35 AM 50.4 °F - 44.1 °F 79% 29.67 in 10.0 mi SW 10.4 mph - N/A   Overcast
11:55 AM 50.9 °F - 43.7 °F 76% 29.67 in 10.0 mi WSW 16.1 mph 19.6 mph N/A   Overcast
12:15 PM 53.4 °F - 44.2 °F 71% 29.67 in 10.0 mi SW 15.0 mph 24.2 mph N/A   Overcast
12:35 PM 51.8 °F - 43.2 °F 72% 29.68 in 10.0 mi WSW 12.7 mph 19.6 mph N/A   Overcast
12:55 PM 52.0 °F - 43.0 °F 71% 29.68 in 10.0 mi WSW 11.5 mph 18.4 mph N/A   Overcast
1:15 PM 52.2 °F - 43.2 °F 71% 29.67 in 10.0 mi WSW 5.8 mph - N/A   Overcast
1:35 PM 52.2 °F - 43.3 °F 72% 29.67 in 10.0 mi West 8.1 mph 17.3 mph N/A   Overcast
1:55 PM 53.1 °F - 43.0 °F 69% 29.66 in 10.0 mi West 8.1 mph - N/A   Overcast
2:15 PM 53.6 °F - 43.5 °F 69% 29.66 in 10.0 mi West 11.5 mph 18.4 mph N/A   Overcast
2:35 PM 53.6 °F - 43.3 °F 68% 29.66 in 10.0 mi WSW 12.7 mph 19.6 mph N/A   Overcast
2:55 PM 54.9 °F - 42.8 °F 64% 29.65 in 10.0 mi WSW 8.1 mph 19.6 mph N/A   Overcast
3:15 PM 54.9 °F - 41.9 °F 62% 29.65 in 10.0 mi West 11.5 mph 18.4 mph N/A   Overcast
3:35 PM 54.3 °F - 42.4 °F 64% 29.66 in 10.0 mi West 15.0 mph 20.7 mph N/A   Overcast
3:55 PM 54.9 °F - 41.2 °F 60% 29.66 in 10.0 mi West 13.8 mph 23.0 mph N/A   Overcast
4:15 PM 54.1 °F - 41.9 °F 63% 29.67 in 10.0 mi West 9.2 mph 18.4 mph N/A   Overcast
6:15 PM 52.2 °F - 41.2 °F 66% 29.69 in 10.0 mi West 6.9 mph - N/A   Mostly Cloudy
6:35 PM 51.8 °F - 41.2 °F 67% 29.70 in 10.0 mi West 6.9 mph - N/A   Overcast
6:55 PM 51.8 °F - 41.0 °F 67% 29.71 in 10.0 mi West 9.2 mph - N/A   Overcast
7:15 PM 51.1 °F - 39.9 °F 66% 29.72 in 10.0 mi West 11.5 mph 20.7 mph N/A   Overcast
7:35 PM 50.5 °F - 38.7 °F 64% 29.73 in 10.0 mi West 11.5 mph - N/A   Overcast
7:55 PM 50.0 °F - 37.8 °F 63% 29.74 in 10.0 mi West 11.5 mph 17.3 mph N/A   Overcast
8:15 PM 50.0 °F - 37.8 °F 63% 29.74 in 10.0 mi West 9.2 mph - N/A   Overcast
8:35 PM 49.3 °F - 38.3 °F 66% 29.75 in 10.0 mi West 6.9 mph - N/A   Overcast
8:55 PM 49.1 °F - 38.5 °F 67% 29.75 in 10.0 mi West 6.9 mph - N/A   Overcast
9:15 PM 48.6 °F - 38.7 °F 69% 29.75 in 10.0 mi West 4.6 mph - N/A   Overcast
9:35 PM 48.4 °F - 38.5 °F 69% 29.75 in 10.0 mi West 5.8 mph - N/A   Overcast
9:55 PM 48.2 °F - 38.7 °F 70% 29.75 in 10.0 mi West 6.9 mph - N/A   Overcast
10:15 PM 48.2 °F - 38.7 °F 70% 29.75 in 10.0 mi West 8.1 mph - N/A   Overcast
10:35 PM 48.2 °F - 39.2 °F 71% 29.76 in 10.0 mi West 6.9 mph - N/A   Overcast
10:55 PM 48.2 °F - 39.2 °F 71% 29.76 in 10.0 mi West 6.9 mph - N/A   Overcast
11:15 PM 48.4 °F - 39.6 °F 72% 29.77 in 10.0 mi West 6.9 mph - N/A   Overcast
11:35 PM 48.4 °F - 39.7 °F 72% 29.77 in 10.0 mi West 8.1 mph - N/A   Overcast
11:55 PM 48.4 °F - 40.1 °F 73% 29.77 in 10.0 mi West 9.2 mph - N/A   Overcast